THOR AGENA B DEB, 2092

Orbit data source: Space-Track

THOR AGENA B DEB, 2092 is space debris in LEO originally from a launch on Mon, 29 Nov 1965 UTC launched from the Air Force Western Test Range (AFWTR). Debris objects in space refer to the collection of defunct objects orbiting the Earth. Examples of debris include non-operational satellites, rocket bodies, and fragments generated from explosions, collisions, or faulty payload assembly.

Loading next visibility...
Identifier
2092, 1965-098H
Orbit
LEO
Last TLE update
7 hours ago
Origin
Manufacturer
Unknown
Mission
Spacecraft
Bus & Motor
Unknown
Mass
~1 kg wet, ~1 kg dry
Launch date (UTC)
1965-11-29 (60 years ago)
Launch vehicle
Unknown
Launch site
Air Force Western Test Range (AFWTR)
Object type
Payload
Rocket body
Debris
Shape & HBR
Ann Cyl, 0.2 m
Radar Cross Section
0.031 m², Small (<0.1 m²)

Expand to show TLE details & history

TLE from 7 hours ago
0 THOR AGENA B DEB
1  2092U 65098H   25186.71629592  .00001070  00000-0  34278-3 0  9999
2  2092  79.8645 296.8026 1300494  97.9730 277.0566 12.34267699637359
Epoch: 2025-07-05T17:11Z
TLE epoch observation values (Epoch: 2025-07-05T17:11:27.967Z)
Latitude
0.00001°
Longitude
114.98573°
Altitude
1,540.768 km
Speed
7.093 km/s
True Right ascension
19h 47m 12s
True Declination
0° 00' 00"
Sunlit
Object was in full shadow at epoch
Visualization orbit readout
Latitude
-70.90688°
Longitude
83.77745°
Altitude
2,569.563 km
Speed
6.232 km/s
Apparent Right ascension
22h 12m 35s
Apparent Declination
-67° 25' 06"
Sunlit
Object is in daylight
Visualization observer readout
Local Sidereal Time
12:26:59
Azimuth
157.096° SSE
Elevation
-56.907°
Doppler factor
1
Orbital elements
Apogee altitude
2,556.653 km
Perigee altitude
500.17 km
Semi-major axis
7,906.548 km
Eccentricity
0.13005
Inclination
79.8645°
RAAN
296.8026°
Arg. of periapsis
97.973°
True anomaly
Unknown
Mean anomaly
277.0566°
Eccentric anomaly
Unknown
Mean motion
3.08719 °/min
Orbital period
116.61 mins
BSTAR
0.00034278
Loading maneuver chart data...
Loading SW <> Apogee altitude chart data...
Loading historical data...
Loading historical data...
Loading historical data...
Loading historical data...
Loading historical data...
Loading historical data...
Loading historical data...

THOR AGENA B DEB Visibility forecast

Observer location: undefined°, undefined°

Span
Click to sort rows by Start time (UTC) header in descending order
Start Az.
Max El. time (UTC)
Max El. Az.
Max El.
End time (UTC)
End Az.
7 mins2025-07-06 06:55:27.447Z135.546° SSE2025-07-06 06:59:27.447Z98.962° ESE17.195°2025-07-06 07:02:27.447Z60.617° ENE
9 mins2025-07-06 08:52:27.447Z214.613° SW2025-07-06 08:57:27.447Z276.158° WNW34.505°2025-07-06 09:01:27.447Z351.082° N
8 mins2025-07-06 19:03:27.447Z352.473° N2025-07-06 19:06:27.447Z146.952° SSE43.771°2025-07-06 19:11:27.447Z168.012° S
|